This demonstration page uses our WeatherBlox Daily Observations layout. Learn more.

Left ArrowRight Arrow

Hourly Observations for July 12, 2018

Temp ( °F °C ) Dew Point ( °F °C ) Humidity (%) Winds ( mph kmh ) Pressure ( in mb ) Visibility ( mi km ) Precip ( " mm )
12:53 am 00:53 Clear 81 27.2 57 13.9 44 44 SE 10 17 29.91 1013 10 16 0.00 0.00
1:53 am 01:53 Clear 80 26.7 57 13.9 45 45 SE 9 15 29.90 1013 10 16 0.00 0.00
2:53 am 02:53 Clear 77 25 57 13.9 50 50 SE 8 13 29.90 1013 10 16 0.00 0.00
3:53 am 03:53 Clear 76 24.4 57 13.9 52 52 SE 9 15 29.89 1012 10 16 0.00 0.00
4:53 am 04:53 Clear 74 23.3 58 14.4 57 57 SE 9 15 29.90 1013 10 16 0.00 0.00
5:53 am 05:53 Clear 72 22.2 59 15 64 64 SE 7 11 29.91 1013 10 16 0.00 0.00
6:53 am 06:53 Clear 73 22.8 59 15 62 62 SE 10 17 29.91 1013 10 16 0.00 0.00
7:53 am 07:53 Mostly Sunny 73 22.8 59 15 62 62 SE 10 17 29.95 1014 10 16 0.00 0.00
8:53 am 08:53 Sunny 76 24.4 60 15.6 58 58 SE 12 19 29.95 1014 10 16 0.00 0.00
9:53 am 09:53 Partly Cloudy 81 27.2 60 15.6 49 49 SE 10 17 29.96 1015 10 16 0.00 0.00
10:53 am 10:53 Partly Cloudy 86 30 60 15.6 42 42 SSE 9 15 29.95 1014 10 16 0.00 0.00
11:53 am 11:53 Sunny 87 30.6 60 15.6 40 40 E 7 11 29.95 1014 10 16 0.00 0.00
12:53 pm 12:53 Sunny 92 33.3 59 15 33 33 ESE 13 20 29.94 1014 10 16 0.00 0.00
1:53 pm 13:53 Sunny 94 34.4 54 12.2 26 26 ESE 12 19 29.92 1013 10 16 0.00 0.00
2:53 pm 14:53 Sunny 95 35 52 11.1 23 23 SE 13 20 29.90 1013 10 16 0.00 0.00
3:53 pm 15:53 Sunny 96 35.6 50 10 21 21 ESE 10 17 29.88 1012 10 16 0.00 0.00
4:53 pm 16:53 Sunny 96 35.6 50 10 21 21 S 14 22 29.86 1011 10 16 0.00 0.00
5:53 pm 17:53 Sunny 92 33.3 60 15.6 34 34 WSW 21 33 29.88 1012 10 16 0.00 0.00
6:53 pm 18:53 Sunny 92 33.3 58 14.4 32 32 W 15 24 29.85 1011 10 16 0.00 0.00
7:53 pm 19:53 Sunny 91 32.8 56 13.3 31 31 WSW 5 7 29.84 1011 10 16 0.00 0.00
8:53 pm 20:53 Sunny 87 30.6 56 13.3 35 35 WSW 3 6 29.86 1011 10 16 0.00 0.00
9:53 pm 21:53 Clear 84 28.9 58 14.4 41 41 Calm 29.88 1012 10 16 0.00 0.00
10:53 pm 22:53 Clear 82 27.8 59 15 46 46 ESE 3 6 29.91 1013 10 16 0.00 0.00
11:53 pm 23:53 Clear 82 27.8 57 13.9 42 42 S 9 15 29.92 1013 10 16 0.00 0.00

Powered by AerisWeather